STARLINK-32952, 63146

Orbit data source: Space-Track

STARLINK-32952, 63146 is a payload satellite owned by SpaceX/Seattle (US) in LEO that was launched on Mon, 03 Mar 2025 UTC via an FALCON 9 launch vehicle from the Air Force Eastern Test Range (AFETR). Payload-class satellites include a variety of spacecraft equipped with specific instruments for various scientific and technological missions. These include communications satellites like Starlink; space stations such as the ISS; scientific satellites like the Hubble; Earth observation satellites from companies like Planet Labs, Umbra, and HawkEye 360; GPS; miniature CubeSats for education and research; and military/defense satellites.

Loading next visibility...
Identifier
63146, 2025-043Q
Orbit
LEO
Last TLE update
19 hours ago
Origin
Manufacturer
SpaceX/Seattle
Mission
Operational Commercial Communications
Bus & Motor
STARLINK V2M, Unknown motor
Mass
730 kg wet, ~700 kg dry
Launch date (UTC)
2025-03-03 (4 months ago)
Launch vehicle
FALCON 9
Launch site
Air Force Eastern Test Range (AFETR)
Object type
Payload
Rocket body
Debris
Shape & HBR
Box + 2 Pan, 29 m
Radar Cross Section
33.884 m², Large (>1 m²)

Expand to show TLE details & history

TLE from 19 hours ago
0 STARLINK-32952
1 63146U 25043Q   25169.46332387  .00021432  00000-0  78603-3 0  9992
2 63146  43.0034  75.2371 0001707 259.2419 100.8241 15.27581308 17507
Epoch: 2025-06-18T11:07Z
TLE epoch observation values (Epoch: 2025-06-18T11:07:11.182Z)
Latitude
0.00002°
Longitude
1.49552°
Altitude
483.041 km
Speed
7.626 km/s
True Right ascension
05h 00m 56s
True Declination
0° 00' 00"
Sunlit
Object was in daylight at epoch
Visualization orbit readout
Latitude
41.2801°
Longitude
66.3971°
Altitude
486.835 km
Speed
7.627 km/s
Apparent Right ascension
07h 17m 32s
Apparent Declination
2° 54' 55"
Sunlit
Object is in daylight
Visualization observer readout
Local Sidereal Time
17:07:00
Azimuth
317.057° NNW
Elevation
-37.766°
Doppler factor
1
Orbital elements
Apogee altitude
486.161 km
Perigee altitude
483.818 km
Semi-major axis
6,863.127 km
Eccentricity
0.00017
Inclination
43.0034°
RAAN
75.2371°
Arg. of periapsis
259.2419°
True anomaly
Unknown
Mean anomaly
100.8241°
Eccentric anomaly
Unknown
Mean motion
3.81733 °/min
Orbital period
94.31 mins
BSTAR
0.00078603
Loading maneuver chart data...
Loading SW <> Apogee altitude chart data...
Loading historical data...
Loading historical data...
Loading historical data...
Loading historical data...
Loading historical data...
Loading historical data...
Loading historical data...

STARLINK-32952 Visibility forecast

Observer location: undefined°, undefined°

Span
Click to sort rows by Start time (UTC) header in descending order
Start Az.
Max El. time (UTC)
Max El. Az.
Max El.
End time (UTC)
End Az.
6 mins2025-06-19 20:15:33.216Z202.79° SW2025-06-19 20:18:33.216Z146.959° SSE23.362°2025-06-19 20:21:33.216Z90.957° ESE
6 mins2025-06-19 21:54:33.216Z254.945° W2025-06-19 21:57:33.216Z50.111° ENE43.789°2025-06-19 22:00:33.216Z71.132° E
5 mins2025-06-19 23:34:33.216Z295.213° NW2025-06-19 23:36:33.216Z10.138° NNE37.839°2025-06-19 23:39:33.216Z75.89° E
5 mins2025-06-20 01:13:33.216Z288.874° WNW2025-06-20 01:15:33.216Z30.514° NE44.988°2025-06-20 01:18:33.216Z108.226° ESE
4 mins2025-06-20 02:52:33.216Z250.875° W2025-06-20 02:54:33.216Z204.984° SW21.32°2025-06-20 02:56:33.216Z167.159° S
|